Theta_e
314 314 314 314 314 314 314 313 313 313 314 314 314 315 314 314 314 314 306 309 311 316 322 313 309 307 309 308 309 312 302 299 301 303 304 310 305 310 311 310 312 313 312 318 344
314 314 314 314 314 313 314 314 314 313 313 313 313 314 314 313 312 307 313 313 315 318 313 307 306 306 302 303 306 304 300 300 305 307 306 308 307 308 307 307 309 310 314 316 335
314 314 314 314 313 313 313 313 313 313 312 312 312 313 314 314 306 306 316 317 319 321 315 310 309 306 301 302 303 302 298 304 305 308 309 307 307 309 306 306 309 309 313 315 326
313 313 313 313 313 313 313 313 312 312 312 312 312 313 314 312 297 311 322 317 316 316 311 307 306 302 300 298 301 297 301 302 305 308 306 305 309 308 308 308 312 313 315 315 321
313 313 313 313 313 313 312 312 313 313 312 313 313 313 313 306 304 313 322 315 314 310 306 305 303 302 298 298 300 298 299 301 303 304 305 307 305 306 307 311 314 314 314 315 317
312 312 313 312 312 312 312 313 313 313 313 313 314 313 309 300 311 312 312 311 311 309 307 306 304 306 302 300 298 300 299 300 302 301 303 302 304 306 308 311 311 312 313 315 316
313 312 311 311 312 313 313 313 312 313 313 314 314 313 307 304 313 313 312 312 312 310 306 308 308 304 303 299 303 301 297 299 300 301 301 302 297 300 307 310 309 311 313 314 316
312 312 311 312 313 313 314 313 314 315 314 315 315 312 305 313 316 313 315 313 314 313 310 311 310 305 303 304 300 297 297 292 299 300 301 300 293 301 306 307 307 309 312 313 316
313 312 311 312 313 313 313 313 316 316 316 315 313 309 303 312 309 312 314 309 311 311 311 310 308 303 303 297 294 296 290 292 294 300 300 299 295 301 305 306 306 308 310 311 313
312 312 312 312 312 313 312 312 317 316 315 314 312 305 308 304 309 310 312 312 308 308 306 305 303 299 299 296 288 290 291 292 292 296 298 297 297 301 304 305 306 308 309 311 312
311 312 311 311 312 312 312 314 309 308 309 304 305 304 305 309 311 308 310 309 308 305 299 302 297 293 296 298 297 295 293 292 296 299 296 296 297 300 303 304 305 307 309 311 313
311 311 311 311 312 311 313 308 307 308 300 307 306 306 308 308 302 305 309 303 302 298 300 298 294 299 300 299 297 296 293 293 297 299 297 296 295 298 302 303 305 307 309 311 313
311 311 310 311 311 311 310 308 313 312 302 302 305 304 304 306 302 302 306 304 300 298 298 293 297 300 298 296 294 295 293 293 293 297 299 296 293 296 300 301 304 307 309 312 313
310 310 311 310 308 313 310 312 314 313 298 295 298 303 304 306 300 307 307 303 300 296 297 295 300 297 297 295 296 291 297 296 292 289 288 296 287 295 299 299 301 304 307 310 313
309 310 310 308 314 309 310 315 314 310 285 296 298 308 306 301 301 302 309 304 297 297 296 294 296 295 295 296 297 293 297 295 294 291 289 292 289 293 298 296 299 302 306 310 314
309 310 310 311 315 312 313 314 312 295 284 293 299 299 299 301 300 302 302 305 303 298 299 297 301 298 298 300 298 298 295 294 294 291 284 291 290 291 295 297 300 304 305 309 313
309 308 310 313 307 313 314 309 295 286 296 292 294 298 297 296 297 298 297 296 291 287 291 295 297 300 300 296 299 294 290 284 282 282 283 292 289 292 298 300 302 304 306 309 314
307 306 308 310 313 314 311 300 286 290 292 298 297 297 293 296 296 296 295 293 297 295 291 288 287 295 300 297 292 292 292 286 279 281 285 291 286 291 300 302 304 306 309 310 314
305 317 314 310 313 313 304 292 290 293 295 294 296 292 293 295 294 293 294 294 296 296 289 288 288 297 297 298 295 290 286 293 285 287 284 289 292 297 300 300 302 306 308 310 314
308 312 308 312 315 311 299 290 294 297 298 297 290 293 288 291 291 292 292 297 295 298 298 290 284 294 296 297 296 293 295 287 288 279 279 286 288 289 295 297 300 303 308 311 314
308 304 308 312 313 304 294 293 295 299 299 295 294 291 292 290 291 289 290 296 298 297 296 291 284 289 294 292 291 289 287 291 291 287 282 282 286 298 297 300 299 304 309 312 313
305 298 308 312 299 301 294 294 295 297 299 298 298 296 292 292 289 288 289 292 299 296 288 292 287 285 290 296 299 295 292 291 285 285 288 286 284 303 300 302 303 306 310 313 316
300 301 308 308 292 294 297 295 295 296 296 296 295 296 297 290 286 291 293 298 298 294 287 290 287 283 287 292 295 292 294 294 294 293 286 282 283 298 300 306 305 308 311 313 324
300 296 302 303 301 295 294 294 293 298 296 298 297 298 294 292 293 289 291 295 297 296 299 296 288 286 284 289 290 289 291 293 291 286 287 285 287 292 299 304 307 310 312 319 323
301 297 297 293 296 295 296 294 292 292 296 298 296 296 294 287 289 290 294 294 295 297 295 291 287 289 291 293 294 291 292 291 290 291 285 288 290 295 300 300 309 311 322 318 317
298 296 300 296 297 295 292 294 292 293 294 295 295 297 296 291 292 289 292 292 289 293 291 293 287 291 289 295 294 291 292 292 292 292 292 291 291 300 306 305 312 319 315 313 314
305 304 299 296 295 293 293 293 292 295 297 299 298 295 293 298 298 300 301 299 294 290 289 288 289 289 288 294 293 288 289 290 291 293 287 289 294 301 304 313 314 313 313 312 312
Wind_Speed
18 18 18 18 17 17 18 17 17 17 16 15 16 15 15 16 19 14 8 6 2 4 11 3 5 7 9 12 13 14 15 20 25 24 17 15 12 15 10 19 21 21 19 5 8
18 18 18 18 18 18 17 16 16 15 14 14 13 14 15 15 17 6 8 1 5 6 4 6 2 3 10 10 10 16 16 27 20 15 12 19 16 14 14 16 19 15 14 6 13
19 19 19 18 18 17 17 16 14 13 12 12 12 12 13 14 7 6 6 5 5 8 5 6 5 6 7 10 14 15 24 20 18 15 16 19 21 13 17 18 17 20 16 10 10
19 20 19 19 18 17 16 15 13 12 11 11 12 12 10 9 5 5 9 2 4 10 8 4 5 8 7 9 10 19 21 20 23 11 10 17 17 19 17 20 11 14 14 1 10
20 20 19 19 18 16 15 14 14 14 12 11 11 10 9 6 4 8 8 5 9 6 7 6 8 8 11 5 8 16 19 21 16 21 18 20 20 20 20 17 18 17 14 14 13
21 20 19 19 17 16 15 15 14 13 11 9 10 6 6 2 3 4 6 7 9 8 3 3 3 4 9 10 11 10 9 13 16 19 24 24 24 23 18 15 21 24 22 19 17
19 19 20 19 17 16 15 15 14 11 8 8 8 7 6 7 1 4 6 7 4 8 8 6 5 9 2 10 8 12 16 16 18 20 22 21 29 37 24 23 19 18 20 20 18
21 19 20 19 18 16 17 16 11 3 4 7 8 5 4 3 3 7 7 10 9 8 9 6 8 12 11 10 13 17 16 16 13 7 19 18 28 32 26 25 26 23 20 16 16
20 19 20 19 18 17 16 12 1 6 8 9 7 5 3 5 5 7 5 8 4 7 7 5 10 14 12 13 15 14 15 14 14 9 11 21 26 20 21 18 16 19 18 20 20
20 19 18 18 17 16 14 7 9 10 7 4 3 7 5 5 7 10 0 8 7 7 10 12 10 13 14 14 15 15 12 13 13 13 14 19 24 20 12 10 15 18 15 15 17
23 20 20 18 17 14 10 7 5 7 7 10 13 10 8 7 10 14 7 6 7 9 15 15 14 17 19 19 19 20 21 21 18 11 13 19 20 17 19 21 20 17 16 15 15
25 24 22 18 16 11 7 6 6 8 10 7 6 9 9 6 19 13 4 8 7 14 13 11 19 21 20 21 21 22 23 24 20 17 15 22 22 22 20 22 21 21 19 17 15
24 24 23 18 15 5 5 5 6 5 7 2 5 8 4 12 21 11 5 9 15 17 16 19 20 18 15 16 19 22 23 23 22 18 18 19 23 25 26 26 23 24 20 18 17
25 24 21 17 6 4 1 1 6 5 6 6 1 1 6 17 7 5 12 9 13 15 15 16 17 15 20 23 21 21 18 19 18 13 18 17 20 22 22 25 25 27 23 22 20
27 24 18 7 5 5 7 9 3 6 4 12 2 6 14 10 13 5 1 9 17 18 12 16 16 16 17 16 13 17 16 18 16 17 18 24 14 25 19 21 23 26 26 24 21
28 23 12 4 3 6 7 3 6 8 5 9 5 16 20 16 9 10 16 10 13 17 19 26 21 18 22 15 15 13 12 10 13 11 16 24 22 22 18 21 24 23 28 25 22
28 22 7 4 8 10 5 5 6 6 12 8 17 21 20 15 17 13 18 14 7 5 11 15 20 22 18 18 14 7 6 6 9 10 20 12 17 22 18 16 21 25 26 27 23
28 14 3 3 7 6 6 6 4 7 9 14 16 19 10 16 15 17 17 15 11 8 10 8 6 7 13 19 10 18 18 11 8 15 16 22 11 23 27 25 20 21 22 25 23
26 2 2 10 7 5 8 4 6 10 12 13 18 11 17 22 17 13 16 15 4 4 5 6 8 4 9 15 9 3 12 14 4 11 10 16 16 21 17 16 25 13 19 24 21
6 3 5 14 7 7 4 2 4 4 11 10 9 8 21 24 15 18 12 8 6 7 4 2 11 14 13 5 7 10 6 5 7 8 15 15 20 17 19 19 24 23 17 20 21
5 5 7 13 6 3 4 5 6 6 9 6 12 16 17 18 15 8 8 14 10 9 9 3 7 7 5 10 12 6 4 9 10 11 7 13 13 20 19 20 26 24 24 21 23
6 4 9 10 2 2 5 7 5 8 5 9 9 11 11 16 7 8 10 8 13 10 7 7 4 7 18 12 16 12 13 16 8 13 12 15 15 23 13 18 25 22 23 25 24
8 4 5 10 6 7 7 5 4 10 9 5 7 7 17 8 9 9 16 10 12 10 4 2 5 6 6 8 9 7 12 15 17 11 13 7 7 21 29 24 24 24 25 24 24
6 6 2 3 2 7 9 5 9 8 12 8 14 14 13 20 13 11 21 9 21 19 18 7 5 8 11 19 3 6 7 14 14 10 10 11 16 25 21 22 21 21 24 26 23
5 5 4 7 3 10 8 5 13 11 5 9 8 14 21 9 21 9 25 24 11 4 5 3 6 8 16 21 11 10 11 7 16 16 8 7 15 23 20 16 17 22 28 22 21
8 6 2 10 8 12 3 8 11 13 7 10 12 23 21 18 14 26 25 18 4 6 5 3 5 12 15 8 3 5 6 7 11 13 13 14 19 16 17 15 19 25 24 23 22
2 1 5 5 7 8 7 10 12 15 11 14 18 21 21 22 27 27 18 10 6 5 6 4 5 6 6 8 2 6 7 10 6 7 5 8 11 13 9 21 20 21 20 24 22
Wind_Direction
348 345 344 343 341 337 335 331 328 326 322 321 320 321 324 324 306 288 278 40 335 327 297 286 239 237 241 244 231 238 239 241 242 240 243 240 236 215 249 239 239 248 241 260 125
346 342 340 338 336 335 330 326 322 320 316 314 317 319 322 325 308 285 74 245 262 273 291 343 11 245 233 239 218 228 232 244 254 267 239 257 234 244 221 226 226 231 225 200 167
343 339 337 335 334 330 326 323 319 316 313 309 309 310 309 306 266 78 128 201 241 259 291 304 270 256 236 238 229 240 250 258 252 292 251 257 259 234 249 240 221 221 224 195 230
340 337 336 333 331 329 325 324 322 316 311 306 304 299 310 289 1 112 149 163 287 289 271 262 245 243 258 228 227 248 264 265 272 232 249 259 265 255 246 248 247 232 257 318 263
339 338 335 331 330 327 325 321 314 306 299 295 290 295 276 221 61 128 201 218 265 252 258 271 267 267 259 281 283 251 256 265 243 259 261 263 257 257 251 250 264 270 260 248 242
340 339 334 332 333 329 324 318 309 301 290 273 265 262 265 140 71 182 234 255 253 231 208 232 294 316 285 267 261 298 284 281 272 261 255 255 259 262 241 239 248 255 255 250 245
339 339 339 337 333 329 323 319 309 298 279 240 229 232 258 52 188 202 227 251 244 244 244 228 261 251 317 259 268 274 270 263 248 244 247 252 254 247 246 253 261 255 248 247 248
343 341 339 334 330 329 327 324 308 271 182 187 194 227 281 125 278 248 242 248 230 239 255 286 259 260 267 277 264 255 257 267 256 261 238 228 252 248 238 240 242 247 246 245 238
339 340 337 334 329 330 331 326 4 121 133 152 200 256 214 134 250 356 265 287 215 217 220 240 244 244 241 251 260 231 260 250 252 215 250 216 252 262 248 220 241 241 244 241 241
338 336 332 330 326 326 323 278 125 155 184 217 258 238 220 329 328 316 124 268 268 234 219 223 227 237 231 245 252 268 235 240 252 263 222 244 247 264 266 232 231 240 241 247 241
338 336 333 327 321 321 294 215 258 189 242 291 311 288 301 324 287 295 314 217 236 237 253 226 238 239 250 255 254 273 276 269 269 267 264 268 277 271 248 250 245 250 243 248 237
336 335 332 324 318 309 265 346 22 331 303 317 271 269 267 290 307 337 176 228 233 276 283 248 242 250 262 267 264 262 261 262 264 259 260 265 266 257 253 251 258 250 243 242 242
336 333 333 324 318 253 325 19 324 308 274 312 281 281 297 298 314 288 287 276 281 272 267 262 269 291 260 254 254 250 252 263 271 274 254 259 268 262 252 245 246 249 252 247 243
338 335 332 321 270 350 60 358 306 297 269 34 190 135 273 330 290 220 306 296 281 271 294 283 279 275 272 253 252 255 258 266 270 263 256 233 258 254 246 232 227 238 234 234 230
337 336 333 312 332 329 349 320 323 210 288 348 359 356 319 311 319 41 66 292 282 291 283 249 270 278 267 257 269 271 292 277 264 247 262 251 246 256 248 235 230 223 224 227 225
336 336 332 218 228 4 319 292 230 231 20 343 310 327 323 330 321 274 286 285 274 288 268 266 275 267 256 269 265 270 291 257 224 238 241 235 235 258 249 233 226 219 215 216 217
336 333 309 303 342 328 315 234 262 15 348 345 326 328 321 333 322 326 317 306 264 267 279 308 263 223 239 249 251 191 188 209 196 202 238 227 216 239 249 244 232 218 211 206 205
331 318 134 360 331 306 265 273 329 8 345 327 327 312 326 337 338 316 313 311 314 258 282 286 305 192 207 229 227 213 212 230 227 216 244 213 231 229 230 240 268 236 218 203 195
314 216 278 351 329 284 282 24 353 347 337 322 317 329 339 333 331 336 305 302 279 252 239 299 252 7 280 245 262 145 215 244 293 283 290 264 220 241 261 239 234 231 219 201 181
323 284 36 341 325 272 344 284 308 314 317 311 315 329 329 333 328 332 308 302 289 322 348 275 280 265 275 282 230 217 350 192 200 247 243 246 237 251 221 219 213 219 227 196 177
286 274 31 343 273 280 30 349 314 334 331 306 303 305 324 331 318 301 267 295 315 315 307 251 222 274 260 211 215 173 212 230 271 250 261 269 257 266 216 214 203 202 203 181 177
312 302 13 332 312 3 359 334 341 298 303 287 285 292 318 324 279 279 255 283 313 327 277 260 277 259 263 254 258 232 221 227 235 226 239 268 268 323 183 232 190 208 192 182 172
331 306 45 314 15 348 342 295 257 307 326 299 287 296 311 303 298 251 292 280 323 315 262 179 229 279 247 211 224 239 225 231 236 259 267 276 280 295 311 303 175 199 179 160 143
311 323 53 68 71 336 340 312 323 320 300 271 285 298 289 311 300 283 288 300 319 304 290 207 246 243 274 305 349 245 225 220 230 252 263 262 296 277 287 301 182 190 158 141 121
5 44 14 317 340 332 304 288 320 339 277 299 284 308 334 304 301 275 314 314 315 321 305 234 263 243 251 272 265 242 263 191 240 242 251 290 255 276 280 272 185 166 118 125 135
332 339 282 287 294 305 93 322 312 329 306 298 302 322 320 303 304 316 313 312 291 314 301 271 276 302 289 283 207 224 198 208 236 262 262 261 269 275 266 258 164 120 131 136 131
44 190 290 301 314 300 357 323 307 314 293 276 298 316 310 312 320 302 290 285 241 281 317 287 304 301 295 330 302 121 11 308 327 299 282 265 268 274 278 131 124 126 136 132 127